Wind_Speed
43 41 40 39 37 34 29 24 29 31 32 33 27 29 21 18 19 18 16 11 15 18 19 12 11 10 7 7 9 8 10 11 9 8 7 7 7 8 10 12 13 13 12 11 9 6 5 5 6
46 44 44 43 43 38 28 24 26 35 39 36 33 29 21 21 18 22 20 18 21 22 22 16 16 15 10 7 8 9 10 10 10 9 8 7 8 9 10 12 13 12 10 9 7 7 7 8 9
49 48 46 50 49 39 27 26 28 39 41 40 37 36 31 26 26 25 26 24 25 25 23 25 22 22 17 11 9 9 9 9 8 7 5 5 8 10 11 11 12 11 9 7 5 7 8 9 9
49 51 53 54 51 38 30 30 32 41 43 40 40 41 38 38 30 27 25 26 25 23 25 26 20 16 16 15 13 11 12 11 9 6 5 5 6 8 10 11 11 9 7 7 8 10 12 12 13
46 51 53 55 49 41 36 36 37 42 45 43 47 46 43 40 35 28 27 25 26 26 27 27 27 25 20 17 16 14 14 11 9 7 5 3 5 6 8 7 7 7 9 11 12 13 14 16 17
46 48 51 49 42 38 42 41 43 44 44 45 49 52 51 46 40 30 31 30 26 26 27 28 28 26 26 24 20 17 14 13 11 10 8 5 5 6 6 8 10 11 12 14 15 16 17 18 19
44 47 49 47 44 41 44 43 50 47 49 46 52 56 55 52 51 47 40 37 33 27 27 27 26 25 24 25 22 21 18 16 14 12 12 11 9 9 12 15 16 15 15 16 19 20 22 22 23
39 44 47 46 42 38 43 46 48 54 53 50 57 58 55 52 49 49 49 44 35 36 32 28 29 30 29 25 25 24 24 25 23 20 18 17 17 15 16 18 19 21 22 22 23 24 25 25 24
39 42 40 39 40 36 36 45 51 53 54 58 57 61 58 53 52 50 49 47 41 32 29 29 31 35 34 30 27 28 27 28 29 26 22 22 20 21 21 23 25 26 26 27 28 28 29 30 29
43 42 35 31 33 35 35 43 49 55 56 57 61 62 58 57 56 55 53 52 49 45 40 40 40 23 30 24 30 31 33 34 34 33 30 28 26 25 26 27 30 32 32 32 32 34 33 34 33
35 29 38 35 36 34 34 45 45 54 58 57 62 63 61 61 59 61 59 56 53 46 39 32 36 40 36 39 37 34 33 42 41 37 38 36 33 30 30 32 34 38 40 38 38 37 37 39 40
34 35 38 39 41 40 35 41 47 53 54 59 57 63 61 62 60 59 61 58 52 51 46 42 44 45 43 45 40 37 37 42 49 42 44 43 40 34 35 37 39 43 44 43 45 44 45 46 47
36 33 38 39 42 45 41 40 47 47 52 55 56 58 64 64 60 58 56 52 55 54 45 35 32 37 37 43 40 36 38 37 42 43 47 46 43 40 39 41 42 44 45 46 49 49 50 53 55
40 40 39 40 43 47 48 44 46 41 50 53 56 55 58 59 60 59 56 52 51 48 39 35 34 34 34 36 39 39 43 38 41 32 50 60 64 51 44 50 43 47 47 48 51 51 52 56 60
45 44 42 42 44 47 51 52 47 41 49 51 54 55 56 56 57 56 51 46 42 40 39 33 33 33 32 34 36 29 30 31 30 36 36 35 47 46 40 38 43 49 53 53 54 51 54 58 62
49 48 43 44 47 47 50 42 47 46 49 51 51 52 53 54 53 49 42 43 42 42 43 37 34 33 33 32 31 36 33 30 28 28 28 31 33 44 41 41 48 52 56 59 62 57 54 51 37
54 49 45 47 47 47 47 41 42 48 50 50 48 49 50 49 49 43 42 42 43 44 44 40 37 35 36 34 34 33 31 31 33 31 32 27 30 34 41 40 45 49 55 61 67 65 49 48 41
56 50 51 49 48 47 42 41 41 43 49 49 49 45 47 51 55 56 49 50 48 46 42 40 40 37 37 36 36 34 34 35 36 37 32 36 35 31 31 36 40 48 49 53 40 37 40 42 48
56 53 51 51 44 45 41 39 40 38 42 44 48 48 50 52 59 62 59 55 49 47 46 44 42 40 40 40 40 37 37 36 37 35 36 38 39 41 37 40 46 48 53 58 55 53 55 47 46
55 53 50 47 44 43 42 43 42 38 42 48 47 48 49 52 56 57 57 54 51 48 48 45 44 43 41 41 42 40 37 37 37 38 36 34 39 42 46 49 53 51 55 49 44 49 43 40 52
55 51 49 46 38 39 44 45 42 41 44 46 47 46 49 49 53 54 50 48 48 45 45 45 45 44 44 44 42 43 43 44 41 38 39 41 44 47 50 52 52 58 57 48 53 46 44 51 48
52 47 45 39 33 40 42 44 40 38 41 44 43 40 43 46 46 46 45 41 42 45 46 45 45 45 46 45 44 44 45 44 42 38 37 41 42 45 48 52 55 54 51 49 45 50 48 50 51
45 38 35 32 34 37 40 44 36 38 38 35 36 38 40 42 43 43 39 39 39 42 44 43 42 43 41 43 44 39 37 37 37 36 36 37 39 45 46 46 49 50 47 42 42 44 47 47 49
41 35 36 35 37 42 40 44 37 39 34 26 28 31 35 29 33 32 31 35 36 37 37 36 33 33 36 39 37 31 27 23 24 26 28 30 33 35 28 27 27 30 31 35 38 39 39 38 38
46 43 42 41 46 48 43 44 37 33 33 31 26 23 20 24 32 32 30 26 23 24 26 27 30 32 30 26 20 19 17 15 19 21 20 19 20 17 19 22 25 28 31 34 35 39 42 44 45
51 47 51 50 50 47 44 45 38 36 30 30 28 26 24 27 30 29 17 15 17 20 24 27 30 26 20 16 15 13 13 17 16 15 16 17 18 19 22 25 27 30 34 37 40 42 44 46 48
47 46 43 44 44 46 48 48 38 35 28 31 29 30 31 30 28 18 16 15 17 17 18 22 21 19 18 18 15 15 15 15 16 17 19 20 23 25 28 31 33 36 38 41 44 46 47 49 51
43 42 50 46 43 40 45 44 44 31 31 34 35 35 31 24 23 21 21 24 19 18 19 20 22 24 25 18 13 19 20 19 21 22 24 27 33 34 35 37 39 41 44 45 45 46 47 48 49
49 50 51 48 50 43 43 43 42 33 35 37 38 32 33 32 25 24 30 23 22 21 21 19 20 17 16 17 21 20 23 25 28 29 32 36 39 40 42 43 43 45 44 44 46 48 49 52 52
50 51 50 50 47 41 38 39 36 36 39 38 38 35 35 37 28 25 26 30 29 27 22 21 21 19 21 25 24 26 29 32 35 38 39 41 43 44 45 46 45 46 49 50 50 51 52 52 51
Wind_Direction
236 239 239 237 235 224 213 203 195 210 218 223 231 233 223 219 240 253 258 280 280 288 303 283 283 263 254 274 273 265 261 257 244 240 244 254 269 290 302 306 305 308 313 315 305 268 281 299 327
237 237 238 240 237 228 211 209 209 221 222 226 223 238 226 229 240 244 246 256 260 268 279 284 272 266 254 257 274 269 268 266 257 255 264 277 293 300 305 304 304 306 312 320 309 293 307 317 325
233 237 237 237 237 227 214 215 209 221 226 228 228 231 233 231 232 237 246 249 250 256 270 262 277 270 264 251 265 270 264 266 266 265 268 293 306 313 313 312 310 311 313 307 281 284 297 308 314
230 233 237 237 238 233 221 225 218 225 229 231 235 237 233 238 236 234 239 242 250 256 256 261 266 267 264 259 254 256 260 248 244 248 260 290 319 320 319 316 313 310 307 296 291 297 308 308 308
235 234 235 239 237 231 231 230 227 230 231 234 240 240 238 238 247 246 247 242 248 253 255 256 260 263 272 268 255 260 268 250 241 239 247 290 310 316 312 305 291 291 297 301 301 303 305 304 306
238 239 239 240 239 228 229 229 231 231 237 237 240 245 244 243 246 248 253 249 251 249 251 254 260 264 273 274 257 251 258 261 253 242 235 238 261 276 261 258 267 273 280 287 290 293 295 294 295
239 240 242 244 237 225 223 222 230 232 233 235 241 244 245 244 246 251 254 260 265 250 249 250 255 259 267 273 273 259 255 249 248 266 267 264 254 253 254 263 272 275 278 287 294 295 294 291 292
243 240 241 242 241 229 227 224 225 232 232 233 241 245 247 249 251 252 254 254 262 256 256 259 259 256 250 255 264 267 258 254 255 266 273 273 271 263 261 269 275 281 283 283 287 292 292 291 292
249 249 247 245 243 241 231 225 225 230 233 237 243 248 249 249 252 253 252 255 256 257 262 261 260 263 257 254 255 255 254 257 259 262 264 263 261 262 266 270 275 277 281 283 284 287 291 295 296
252 256 255 252 247 241 230 228 221 227 233 231 240 246 248 249 250 251 254 256 254 250 258 258 271 271 280 268 260 265 263 259 254 255 255 257 256 258 264 270 273 278 280 281 283 285 287 287 287
257 262 256 245 244 241 226 227 220 223 228 230 234 239 246 249 249 250 250 253 257 257 255 261 256 270 270 266 266 269 267 262 255 254 254 257 257 255 255 262 262 266 267 272 277 279 282 285 287
251 253 252 247 242 241 233 229 223 222 222 232 233 243 240 246 252 252 256 262 264 265 262 258 268 267 263 267 271 268 271 269 265 259 263 261 258 251 252 254 258 261 263 273 281 283 289 288 287
254 247 247 244 240 240 237 232 232 225 224 230 232 237 243 242 244 250 254 257 261 264 270 264 260 264 264 257 269 267 275 273 259 253 264 261 258 245 251 253 261 266 266 275 279 282 285 286 288
247 249 249 247 241 238 238 231 232 231 230 230 234 234 241 244 247 250 255 260 259 262 262 254 253 253 259 265 268 262 260 284 277 270 261 251 257 260 249 256 258 266 268 271 272 273 278 281 280
242 245 246 249 245 238 236 233 238 228 231 231 235 236 240 243 249 253 258 259 261 262 261 255 250 253 262 267 265 252 271 272 269 277 278 269 266 251 247 266 261 263 264 264 266 267 274 276 278
239 241 244 246 247 243 241 246 234 229 229 233 234 239 243 247 248 254 259 261 261 261 264 261 256 258 258 263 260 258 268 274 268 273 275 271 253 242 255 270 266 262 265 268 265 264 265 275 281
239 236 240 244 244 245 247 249 233 232 230 236 233 237 245 252 255 254 256 257 256 259 262 263 263 263 263 261 263 263 264 266 268 267 268 261 267 258 268 274 272 267 266 271 271 268 279 278 278
238 239 240 243 245 245 247 249 243 235 237 235 237 233 237 244 251 252 256 259 260 260 263 265 266 266 266 267 266 263 263 261 262 264 265 265 264 260 270 270 267 267 265 281 275 285 273 276 284
245 246 247 247 245 248 247 246 243 233 237 238 238 232 230 233 238 248 251 254 258 262 266 267 266 266 267 264 265 264 261 262 265 268 269 266 266 265 268 273 259 269 273 274 284 294 290 277 278
240 244 244 245 244 242 240 239 236 228 225 233 234 234 234 234 237 239 244 252 256 259 263 265 268 270 270 270 272 272 272 273 273 272 268 262 260 263 261 260 268 270 272 281 279 268 271 279 275
238 237 238 239 238 234 236 239 239 238 234 231 231 231 234 234 236 240 242 244 249 255 259 262 264 267 270 271 274 277 278 274 273 269 265 266 264 262 264 267 268 270 272 272 270 271 272 284 287
237 232 233 233 228 229 233 237 238 237 239 235 232 231 233 231 235 236 237 240 245 249 253 257 262 265 269 272 273 270 270 273 273 269 262 264 261 264 265 266 268 272 279 276 267 274 280 282 284
229 227 225 220 221 225 231 236 230 234 235 232 230 232 232 238 240 246 244 240 241 244 248 253 258 262 268 268 271 275 275 273 271 267 262 262 261 260 262 267 271 270 278 277 286 285 288 286 284
217 212 214 212 213 221 222 232 220 227 228 219 221 222 225 226 230 234 237 240 241 245 250 254 259 264 264 264 267 269 268 254 252 258 262 266 266 260 264 272 276 279 283 287 292 292 290 292 295
208 201 209 207 207 223 205 222 222 218 211 208 211 219 220 223 235 233 234 237 239 243 246 246 248 251 254 259 253 250 251 245 249 246 247 253 252 255 264 274 278 282 282 280 280 283 285 290 297
207 206 207 207 208 214 196 214 219 216 212 209 208 216 226 221 229 235 236 231 232 237 239 241 238 237 242 243 250 246 243 247 243 251 259 268 283 291 292 291 286 280 278 282 286 291 292 292 291
204 207 205 210 213 213 201 211 216 215 213 207 207 216 224 217 229 233 213 213 212 223 226 209 213 226 240 249 245 255 267 271 273 273 279 285 292 290 288 288 288 288 287 285 285 285 286 286 287
197 197 193 196 197 209 202 211 222 211 218 217 208 215 227 233 237 241 219 220 215 213 212 217 223 232 236 242 255 260 266 277 286 290 290 287 284 287 287 285 284 284 285 286 288 289 289 290 291
194 188 193 198 195 200 201 210 216 213 220 224 216 222 234 238 237 239 228 233 231 221 222 232 243 253 268 272 263 277 289 289 287 288 284 284 285 286 285 286 286 288 291 292 291 290 292 294 293
202 194 194 196 195 196 202 211 215 219 222 228 235 241 236 236 236 243 248 258 239 232 230 232 238 258 265 265 275 279 279 280 282 284 284 283 285 287 289 292 295 295 295 292 293 294 297 296 295
Height
5859 5862 5866 5869 5874 5877 5882 5888 5888 5887 5883 5883 5882 5882 5885 5887 5888 5893 5893 5894 5895 5897 5898 5899 5901 5901 5901 5901 5902 5902 5903 5903 5903 5903 5904 5905 5906 5907 5908 5908 5908 5908 5908 5907 5907 5907 5907 5906 5906
5852 5855 5859 5863 5865 5871 5881 5884 5886 5880 5879 5880 5882 5879 5880 5882 5884 5885 5889 5892 5892 5894 5896 5896 5898 5900 5900 5900 5901 5901 5902 5903 5903 5902 5904 5904 5906 5907 5907 5907 5907 5906 5906 5907 5909 5909 5909 5908 5906
5845 5848 5852 5853 5856 5867 5880 5881 5881 5873 5876 5878 5878 5878 5876 5876 5880 5883 5886 5888 5890 5892 5893 5894 5895 5897 5898 5898 5899 5899 5899 5901 5901 5902 5902 5904 5905 5906 5906 5906 5907 5907 5906 5907 5907 5907 5906 5906 5906
5837 5841 5843 5844 5853 5869 5875 5876 5875 5870 5872 5876 5875 5873 5876 5876 5875 5880 5883 5885 5887 5889 5891 5892 5894 5895 5896 5896 5896 5897 5898 5898 5899 5899 5900 5902 5903 5905 5906 5907 5907 5907 5906 5906 5907 5907 5906 5906 5905
5830 5833 5833 5836 5849 5864 5869 5869 5869 5867 5868 5872 5867 5869 5872 5876 5878 5880 5881 5882 5885 5886 5888 5889 5889 5890 5892 5894 5894 5895 5896 5896 5897 5897 5898 5899 5901 5902 5903 5904 5904 5904 5904 5904 5904 5904 5903 5903 5902
5822 5825 5826 5831 5845 5858 5859 5861 5861 5862 5862 5865 5865 5861 5865 5869 5873 5877 5879 5880 5882 5884 5884 5883 5885 5887 5890 5892 5892 5893 5894 5897 5897 5896 5896 5897 5898 5899 5899 5899 5900 5900 5899 5899 5899 5899 5900 5898 5897
5815 5817 5820 5826 5836 5845 5849 5851 5853 5856 5853 5859 5854 5851 5857 5863 5866 5871 5874 5876 5879 5879 5879 5880 5881 5883 5886 5887 5890 5891 5893 5894 5894 5895 5895 5895 5896 5897 5897 5897 5897 5896 5896 5896 5896 5895 5894 5894 5893
5808 5809 5812 5817 5826 5838 5840 5843 5844 5846 5850 5850 5844 5846 5851 5857 5862 5866 5867 5870 5874 5876 5876 5877 5879 5879 5879 5882 5885 5889 5891 5892 5891 5892 5894 5895 5894 5894 5894 5894 5895 5895 5894 5893 5892 5890 5889 5888 5888
5800 5799 5805 5813 5818 5828 5832 5832 5836 5838 5843 5843 5842 5841 5846 5851 5854 5857 5860 5863 5867 5870 5873 5876 5875 5876 5877 5878 5880 5882 5885 5887 5888 5889 5890 5890 5890 5890 5890 5890 5890 5890 5889 5888 5887 5885 5884 5883 5881
5791 5794 5800 5806 5810 5815 5820 5821 5825 5830 5831 5837 5835 5836 5841 5843 5846 5850 5851 5854 5858 5863 5867 5871 5872 5872 5875 5875 5876 5879 5880 5881 5883 5884 5883 5884 5884 5884 5886 5886 5885 5885 5884 5882 5881 5881 5879 5878 5876
5785 5788 5794 5799 5800 5805 5809 5808 5813 5819 5823 5827 5825 5827 5832 5836 5839 5839 5840 5844 5849 5858 5863 5865 5866 5868 5870 5871 5871 5873 5874 5875 5877 5878 5878 5879 5879 5880 5880 5879 5878 5877 5876 5875 5875 5874 5874 5873 5872
5778 5780 5783 5789 5790 5793 5800 5801 5804 5807 5818 5815 5822 5821 5826 5827 5830 5831 5837 5840 5846 5850 5855 5862 5861 5860 5861 5861 5865 5867 5869 5869 5870 5873 5875 5874 5874 5874 5872 5871 5871 5869 5871 5871 5871 5870 5870 5867 5865
5770 5773 5774 5777 5781 5782 5788 5794 5794 5805 5808 5808 5813 5815 5814 5818 5821 5825 5830 5836 5839 5842 5846 5852 5854 5854 5854 5856 5856 5859 5860 5861 5863 5865 5868 5869 5868 5864 5864 5864 5864 5866 5867 5867 5866 5866 5863 5859 5857
5760 5763 5765 5767 5769 5772 5776 5783 5783 5801 5799 5802 5802 5808 5808 5809 5812 5816 5822 5828 5832 5835 5839 5843 5845 5846 5847 5848 5849 5851 5851 5854 5856 5856 5852 5855 5851 5853 5858 5859 5859 5860 5859 5858 5857 5856 5854 5851 5847
5750 5752 5755 5757 5759 5761 5764 5771 5781 5789 5788 5792 5794 5798 5801 5804 5805 5809 5813 5816 5821 5825 5829 5834 5837 5838 5839 5839 5840 5842 5845 5847 5847 5847 5849 5843 5843 5846 5852 5851 5851 5851 5849 5845 5843 5844 5844 5841 5839
5739 5741 5745 5747 5747 5752 5754 5767 5774 5777 5778 5783 5789 5791 5792 5796 5801 5805 5809 5810 5813 5817 5819 5824 5828 5830 5832 5833 5835 5836 5838 5837 5840 5840 5837 5838 5830 5838 5841 5840 5839 5840 5839 5835 5832 5833 5834 5833 5830
5728 5731 5735 5737 5738 5741 5749 5757 5766 5767 5771 5775 5782 5786 5790 5791 5793 5799 5802 5804 5805 5807 5810 5814 5818 5821 5823 5827 5828 5831 5832 5833 5834 5833 5832 5829 5829 5833 5832 5831 5829 5827 5828 5827 5822 5822 5823 5824 5822
5715 5721 5725 5729 5732 5733 5740 5747 5755 5759 5762 5769 5773 5781 5785 5787 5786 5788 5793 5794 5796 5800 5803 5806 5808 5813 5814 5817 5820 5824 5825 5828 5828 5826 5823 5821 5821 5823 5823 5823 5821 5819 5820 5817 5814 5814 5813 5812 5811
5709 5714 5718 5722 5726 5727 5733 5737 5742 5748 5752 5761 5765 5769 5775 5778 5782 5779 5784 5786 5789 5793 5795 5798 5800 5804 5806 5809 5810 5813 5817 5818 5816 5815 5813 5811 5811 5812 5814 5813 5812 5812 5811 5807 5805 5804 5804 5801 5800
5694 5701 5707 5712 5716 5719 5723 5726 5731 5735 5742 5747 5754 5760 5765 5768 5770 5775 5778 5780 5782 5785 5786 5789 5791 5794 5796 5798 5799 5801 5803 5804 5803 5805 5805 5803 5802 5801 5801 5802 5803 5802 5800 5800 5797 5797 5792 5789 5790
5682 5690 5695 5702 5706 5710 5713 5716 5724 5730 5735 5738 5741 5748 5754 5758 5760 5763 5770 5773 5776 5779 5779 5780 5782 5784 5786 5786 5789 5791 5792 5793 5795 5795 5796 5795 5794 5793 5792 5791 5792 5791 5791 5792 5790 5787 5782 5779 5776
5671 5679 5684 5691 5696 5700 5704 5708 5716 5722 5726 5732 5736 5741 5746 5747 5749 5754 5761 5767 5770 5770 5770 5772 5774 5775 5776 5779 5780 5782 5782 5784 5784 5785 5785 5785 5785 5783 5782 5781 5781 5780 5780 5778 5777 5777 5774 5772 5771
5660 5670 5676 5682 5686 5691 5698 5701 5712 5714 5719 5725 5728 5733 5737 5740 5741 5746 5753 5758 5761 5762 5763 5764 5767 5768 5768 5767 5767 5768 5770 5771 5772 5774 5775 5777 5774 5773 5773 5771 5769 5770 5769 5767 5765 5764 5763 5762 5760
5648 5658 5664 5671 5676 5681 5691 5693 5704 5707 5715 5719 5723 5726 5729 5733 5735 5739 5743 5748 5752 5754 5756 5757 5759 5758 5758 5758 5759 5761 5762 5763 5763 5764 5765 5765 5765 5765 5766 5765 5764 5762 5761 5760 5758 5757 5756 5753 5751
5634 5644 5651 5658 5663 5672 5682 5684 5695 5701 5708 5712 5717 5721 5725 5729 5731 5734 5738 5741 5744 5746 5748 5750 5750 5750 5750 5752 5754 5755 5758 5759 5759 5760 5762 5762 5762 5760 5760 5760 5758 5756 5755 5754 5753 5750 5747 5743 5739
5624 5633 5640 5646 5655 5666 5677 5678 5686 5694 5702 5707 5712 5715 5719 5722 5726 5729 5732 5734 5736 5739 5740 5741 5742 5745 5748 5749 5751 5752 5754 5755 5755 5755 5755 5756 5754 5753 5753 5752 5751 5750 5748 5745 5742 5739 5736 5733 5731
5617 5624 5642 5648 5655 5662 5672 5675 5680 5691 5698 5702 5706 5709 5712 5715 5719 5724 5726 5729 5731 5731 5733 5735 5739 5741 5744 5744 5746 5748 5750 5751 5751 5751 5750 5747 5747 5748 5747 5746 5744 5742 5740 5737 5735 5731 5728 5724 5720
5610 5625 5627 5634 5646 5654 5665 5672 5677 5688 5692 5696 5700 5705 5710 5713 5716 5720 5723 5723 5725 5728 5731 5734 5734 5735 5737 5736 5739 5743 5743 5744 5743 5742 5740 5741 5742 5741 5739 5737 5736 5734 5731 5727 5724 5721 5717 5713 5710
5603 5610 5618 5632 5640 5647 5657 5666 5673 5683 5687 5690 5696 5702 5706 5709 5713 5715 5717 5722 5723 5723 5724 5725 5727 5728 5728 5731 5735 5734 5735 5735 5736 5735 5736 5735 5733 5731 5730 5728 5725 5723 5720 5716 5713 5709 5705 5701 5697
5601 5607 5616 5625 5636 5645 5654 5663 5670 5676 5680 5686 5692 5696 5700 5704 5709 5712 5716 5717 5717 5716 5717 5720 5723 5723 5726 5727 5728 5730 5730 5730 5729 5728 5726 5724 5722 5720 5717 5715 5713 5710 5707 5703 5699 5695 5691 5687 5684